Hourly Weather Roundup
Issued by NWS Central Illinois

Home | Current Version | Previous Version | Text Only | Print | Product List | Glossary On
Versions: 1 2 3 4 5 6 7 8 9 10 11 12 13 14 15 16 17 18 19 20 21 22 23 24 25 26 27 28 29 30 31 32 33 34 35 36 37 38 39 40 41 42 43 44 45 46 47 48 49 50
104
NZUS43 KILX 051710
HWRILX

AREA WEATHER ROUNDUP
NATIONAL WEATHER SERVICE, LINCOLN IL
1100 AM CST MON DEC 05 2016


CITY           SKY/WX    TMP DP  RH WIND       PRES   REMARKS
BLOOMINGTON    FOG       32  31  96 S15       30.05S VSB 3/4 WCI  22
CHAMPAIGN      CLOUDY    35  32  88 S10       30.08S WCI  27
DANVILLE       CLOUDY    35  33  90 S10       30.06S WCI  27
DECATUR        CLOUDY    35  32  88 S9        30.06F WCI  28
EFFINGHAM      CLOUDY    37  35  94 E6        30.07F WCI  32
FLORA          CLOUDY    39  35  84 E7        30.08F WCI  34
GALESBURG      CLOUDY    33  33 100 S10G16    29.98F FOG     WCI  25
JACKSONVILLE   CLOUDY    37  35  89 S9        30.02F WCI  31
LACON          CLOUDY    33  32  96 S9        30.02F WCI  26
LAWRENCEVILLE  CLOUDY    39  33  79 E9        30.08  WCI  33
LITCHFIELD     CLOUDY    37  34  92 SE8       30.03F WCI  30
$$


CITY           SKY/WX    TMP DP  RH WIND       PRES   REMARKS
LINCOLN        CLOUDY    36  35  96 S8        30.05F WCI  30
MACOMB         FOG       34  34 100 S13       30.02F VSB 1/4 WCI  25
MATTOON        CLOUDY    35  31  85 S9        30.06F WCI  28
MT CARMEL AP   CLOUDY    40  33  77 SE12      30.07F WCI  32
OLNEY-NOBLE AP CLOUDY    37  36  93 E8        30.08F WCI  31
PARIS          CLOUDY    36  33  88 SE8       30.10F WCI  29
PEORIA         CLOUDY    36  34  92 S12       30.03F WCI  28
PONTIAC        CLOUDY    33  33 100 S12       30.06S FOG     WCI  24
RANTOUL        CLOUDY    35  33  92 S13       30.08S WCI  26
SPRINGFIELD    CLOUDY    39  35  86 S12       30.04F WCI  32
TAYLORVILLE    CLOUDY    36  34  92 SE8       30.05F WCI  30
$$

...REGIONAL REPORTS...


CITY           SKY/WX    TMP DP  RH WIND       PRES   REMARKS
CHICAGO O`HARE CLOUDY    32  31  96 S10       30.03S FOG     WCI  24
KANKAKEE       CLOUDY    32  31  94 S10       30.08S WCI  24
MOLINE         CLOUDY    34  31  88 S8        29.98S FOG     WCI  27
MOUNT STERLING FOG       34  34 100 S9        30.00F VSB 3/4 WCI  26
MOUNT VERNON   NOT AVBL
PITTSFIELD     CLOUDY    37  37 100 S6        30.01F FOG     WCI  32
QUINCY         FOG       34  34 100 S9        29.99F VSB 1/4 WCI  27
ROCKFORD       SNOW      31  30  96 S16       30.02S VSB 1/2 WCI  20
$$


CITY           SKY/WX    TMP DP  RH WIND       PRES   REMARKS
BURLINGTON     FOG       32  32 100 S12       29.97F VSB 1/4 WCI  23
CEDAR RAPIDS   CLOUDY    31  31 100 S14       29.91S FOG     WCI  21
DES MOINES     MOSUNNY   44  37  76 S17       29.84F
KIRKSVILLE     FOG       35  35 100 SE7       29.95  VSB 1/2 WCI  29
OTTUMWA        CLOUDY    34  33  96 S17       29.91F FOG     WCI  23
ST LOUIS       CLOUDY    42  35  76 E10       30.02F
$$


CITY           SKY/WX    TMP DP  RH WIND       PRES   REMARKS
TERRE HAUTE    CLOUDY    37  31  78 SE6       30.10  WCI  32
EVANSVILLE     CLOUDY    40  33  76 E7        30.09F
INDIANAPOLIS   CLOUDY    38  31  76 SE8       30.10F WCI  32
LAFAYETTE      CLOUDY    35  31  85 S7        30.10S WCI  29
MADISON        CLOUDY    33  31  92 S16       29.94S FOG     WCI  23
MILWAUKEE      CLOUDY    34  31  88 S8        29.98F FOG     WCI  27
$$






USA.gov is the U.S. government's official web portal to all federal, state and local government web resources and services.